World > North America > United States > Arkansas   City of Fort Smith, AR
Hourly Weather in Fort Smith, ArkansasFort Smith, Arkansas Hourly Weather

Fort Smith, AR Hourly Weather

Hourly Weather Fort Smith, ArkansasHourly Weather in Fort Smith, AR
Lat: 35.39N, Lon: 94.4W  ICAO: KFSM
Web Search
Fort Smith Weather Warning NWS WEATHER ALERT FOR THE FORT SMITH, AR AREA - Issued: 332 AM CST Mon Dec 6 2021 Fort Smith Weather Warning  

Pass this page to a friend. Tell them to point their camera at the QR Code near the bottom of this page.

Feedback

Fort Smith Hourly Weather

36 Hour Weather Scroll   °F Click to change Fort Smith hourly weather to Imperial units.Click to change Fort Smith hourly weather to Metric units. °C
Currently, Clear, temperature is 44°F7°C, dew point 22°F-6°C, humidity 41%. Wind direction is N at 16 mph26 km/h with visibility of 10.00 mi16 km. Barometric pressure is 30.24 in1024 mb.

Dec 06
9:00 AM

Dec 06
10:00 AM

Dec 06
11:00 AM

Dec 06
NOON

Dec 06
1:00 PM

Dec 06
2:00 PM

Dec 06
3:00 PM

Dec 06
4:00 PM

Dec 06
5:00 PM

Dec 06
6:00 PM

Dec 06
7:00 PM

Dec 06
8:00 PM

Dec 06
9:00 PM

Dec 06
10:00 PM

Dec 06
11:00 PM

Dec 07
MIDNIGHT

Dec 07
1:00 AM

Dec 07
2:00 AM

Dec 07
3:00 AM

Dec 07
4:00 AM

Dec 07
5:00 AM

Dec 07
6:00 AM

Dec 07
7:00 AM

Dec 07
8:00 AM

Dec 07
9:00 AM

Dec 07
10:00 AM

Dec 07
11:00 AM

Dec 07
NOON

Dec 07
1:00 PM

Dec 07
2:00 PM

Dec 07
3:00 PM

Dec 07
4:00 PM

Dec 07
5:00 PM

Dec 07
6:00 PM

Dec 07
7:00 PM

Dec 07
8:00 PM
Clear Clear Clear Clear Clear Clear Clear Clear Clear Clear Clear Clear Clear Clear Clear Clear Clear Clear Clear Clear Clear Clear Clear Clear Clear Clear Clear Clear Clear Clear Clear Clear Mostly Clear Mostly Clear Mostly Clear Clear
Clear Clear Clear Clear Clear Clear Clear Clear Clear Clear Clear Clear Clear Clear Clear Clear Clear Clear Clear Clear Clear Clear Clear Clear Clear Clear Clear Clear Clear Clear Clear Clear Mostly Clear Mostly Clear Mostly Clear Clear
45°F7°C 47°F8°C 48°F9°C 50°F10°C 51°F11°C 51°F11°C 52°F11°C 50°F10°C 47°F8°C 45°F7°C 43°F6°C 41°F5°C 39°F4°C 38°F3°C 36°F2°C 35°F2°C 34°F1°C 33°F1°C 32°F0°C 31°F-1°C 31°F-1°C 30°F-1°C 32°F0°C 35°F2°C 37°F3°C 41°F5°C 45°F7°C 49°F9°C 51°F11°C 52°F11°C 54°F12°C 52°F11°C 51°F11°C 49°F9°C 47°F8°C 46°F8°C
- - - - - - - - - - - - - - - - - - - - - - - - - - - - - - - - - - - -
3% 3% 3% 3% 0% 0% 0% 0% 0% 0% 0% 0% 0% 0% 0% 0% 0% 0% 0% 0% 0% 0% 0% 0% 0% 0% 0% 0% 0% 0% 0% 0% 0% 0% 1% 1%
27°F-3°C 24°F-4°C 21°F-6°C 18°F-8°C 16°F-9°C 15°F-9°C 13°F-11°C 13°F-11°C 14°F-10°C 14°F-10°C 16°F-9°C 17°F-8°C 19°F-7°C 20°F-7°C 20°F-7°C 21°F-6°C 21°F-6°C 21°F-6°C 21°F-6°C 21°F-6°C 21°F-6°C 21°F-6°C 22°F-6°C 22°F-6°C 23°F-5°C 23°F-5°C 22°F-6°C 22°F-6°C 23°F-5°C 23°F-5°C 24°F-4°C 25°F-4°C 27°F-3°C 28°F-2°C 29°F-2°C 30°F-1°C
49% 40% 34% 28% 25% 23% 21% 22% 26% 28% 33% 37% 44% 48% 52% 56% 59% 61% 63% 66% 66% 69% 66% 59% 57% 48% 40% 34% 33% 32% 31% 35% 39% 44% 49% 53%
N N N N N N N SSW SE NNE NE NE NE NE NE ENE ENE ENE ENE ENE ENE ENE ENE E E E E E ESE ESE SE ESE E E E E
15 mph 15 mph 14 mph 14 mph 14 mph 13 mph 13 mph 13 mph 7 mph 7 mph 7 mph 4 mph 4 mph 4 mph 3 mph 3 mph 3 mph 4 mph 4 mph 4 mph 5 mph 5 mph 5 mph 10 mph 10 mph 10 mph 6 mph 6 mph 6 mph 6 mph 6 mph 6 mph 5 mph 5 mph 5 mph 5 mph
10 mi16 km 10 mi16 km 10 mi16 km 10 mi16 km 10 mi16 km 10 mi16 km 10 mi16 km 10 mi16 km 10 mi16 km 10 mi16 km 10 mi16 km 10 mi16 km 10 mi16 km 10 mi16 km 10 mi16 km 10 mi16 km 10 mi16 km 10 mi16 km 10 mi16 km 10 mi16 km 10 mi16 km 10 mi16 km 10 mi16 km 10 mi16 km 10 mi16 km 10 mi16 km 10 mi16 km 10 mi16 km 10 mi16 km 10 mi16 km 10 mi16 km 10 mi16 km 10 mi16 km 10 mi16 km 10 mi16 km 10 mi16 km
Hour (CST)
Weather
Clouds
Temperature
Precip. Type
POP
Dewpoint
Humidity
Wind Direction
Wind Speed
Visibility
POP = Probability of Precipitation. ** Indicates missing data/values from model statistics.

24 Hour Forecast

Today - Sunny. Highs in the upper 40s. North winds 10 to 15 mph with gusts to around 35 mph.
Tonight - Clear. Lows around 30. Northeast winds around 10 mph with gusts to around 20 mph.

48 Hour Forecast API Feed


Mon, Dec 6
9:00 am

Mon, Dec 6
10:00 am

Mon, Dec 6
11:00 am

Mon, Dec 6
Noon

Mon, Dec 6
1:00 pm

Mon, Dec 6
2:00 pm

Mon, Dec 6
3:00 pm

Mon, Dec 6
4:00 pm

Mon, Dec 6
5:00 pm

Mon, Dec 6
6:00 pm

Mon, Dec 6
7:00 pm

Mon, Dec 6
8:00 pm

Mon, Dec 6
9:00 pm

Mon, Dec 6
10:00 pm

Mon, Dec 6
11:00 pm

Tue, Dec 7
Midnight

Tue, Dec 7
1:00 am

Tue, Dec 7
2:00 am

Tue, Dec 7
3:00 am

Tue, Dec 7
4:00 am

Tue, Dec 7
5:00 am

Tue, Dec 7
6:00 am

Tue, Dec 7
7:00 am

Tue, Dec 7
8:00 am

Tue, Dec 7
9:00 am

Tue, Dec 7
10:00 am

Tue, Dec 7
11:00 am

Tue, Dec 7
Noon

Tue, Dec 7
1:00 pm

Tue, Dec 7
2:00 pm

Tue, Dec 7
3:00 pm

Tue, Dec 7
4:00 pm

Tue, Dec 7
5:00 pm

Tue, Dec 7
6:00 pm

Tue, Dec 7
7:00 pm

Tue, Dec 7
8:00 pm

Tue, Dec 7
9:00 pm

Tue, Dec 7
10:00 pm

Tue, Dec 7
11:00 pm

Wed, Dec 8
Midnight

Wed, Dec 8
1:00 am

Wed, Dec 8
2:00 am

Wed, Dec 8
3:00 am

Wed, Dec 8
4:00 am

Wed, Dec 8
5:00 am

Wed, Dec 8
6:00 am

Wed, Dec 8
7:00 am

Wed, Dec 8
8:00 am
SunnySunnySunnySunnySunnySunnySunnySunnySunnyClearClearClearClearClearClearClearClearClearClearClearClearClearClearSunnySunnySunnySunnySunnySunnySunnySunnySunnySunnyClearClearClearClearClearOvercastClearClearPartly CloudyPartly CloudyClearClearClearClearSunny
Sunny Sunny Sunny Sunny Sunny Sunny Sunny Sunny Sunny Clear Clear Clear Clear Clear Clear Clear Clear Clear Clear Clear Clear Clear Clear Sunny Sunny Sunny Sunny Sunny Sunny Sunny Sunny Sunny Sunny Clear Clear Clear Clear Clear Overcast Clear Clear Partly cloudy Partly cloudy Clear Clear Clear Clear Sunny
41°F
5°C
42°F
6°C
47°F
9°C
50°F
10°C
53°F
11°C
54°F
12°C
55°F
13°C
54°F
12°C
53°F
12°C
48°F
9°C
45°F
7°C
39°F
4°C
38°F
3°C
37°F
3°C
36°F
2°C
35°F
2°C
34°F
1°C
33°F
1°C
33°F
1°C
33°F
0°C
32°F
0°C
31°F
-0°C
31°F
-0°C
31°F
-1°C
33°F
1°C
37°F
3°C
44°F
7°C
48°F
9°C
50°F
10°C
52°F
11°C
54°F
12°C
54°F
12°C
52°F
11°C
48°F
9°C
44°F
7°C
42°F
6°C
42°F
6°C
41°F
5°C
41°F
5°C
40°F
5°C
41°F
5°C
41°F
5°C
42°F
5°C
42°F
5°C
41°F
5°C
40°F
4°C
38°F
4°C
38°F
3°C
23°F
-5°C
22°F
-6°C
22°F
-6°C
21°F
-6°C
21°F
-6°C
21°F
-6°C
21°F
-6°C
21°F
-6°C
24°F
-4°C
24°F
-4°C
24°F
-4°C
20°F
-7°C
20°F
-7°C
20°F
-7°C
21°F
-6°C
20°F
-7°C
20°F
-6°C
21°F
-6°C
20°F
-7°C
20°F
-7°C
20°F
-7°C
20°F
-7°C
20°F
-7°C
20°F
-6°C
21°F
-6°C
20°F
-6°C
24°F
-5°C
24°F
-4°C
25°F
-4°C
27°F
-3°C
29°F
-2°C
31°F
-0°C
34°F
1°C
34°F
1°C
32°F
0°C
32°F
-0°C
32°F
-0°C
32°F
0°C
32°F
-0°C
32°F
0°C
32°F
0°C
33°F
0°C
33°F
0°C
33°F
0°C
32°F
0°C
32°F
0°C
32°F
-0°C
32°F
-0°C
30.24 in
1024 mb
30.27 in
1025 mb
30.3 in
1026 mb
30.3 in
1026 mb
30.3 in
1026 mb
30.27 in
1025 mb
30.27 in
1025 mb
30.27 in
1025 mb
30.27 in
1025 mb
30.27 in
1025 mb
30.3 in
1026 mb
30.3 in
1026 mb
30.3 in
1026 mb
30.3 in
1026 mb
30.3 in
1026 mb
30.27 in
1025 mb
30.27 in
1025 mb
30.24 in
1024 mb
30.21 in
1023 mb
30.18 in
1022 mb
30.18 in
1022 mb
30.15 in
1021 mb
30.15 in
1021 mb
30.18 in
1022 mb
30.15 in
1021 mb
30.15 in
1021 mb
30.12 in
1020 mb
30.09 in
1019 mb
30.03 in
1017 mb
30 in
1016 mb
29.94 in
1014 mb
29.91 in
1013 mb
29.91 in
1013 mb
29.94 in
1014 mb
29.94 in
1014 mb
29.97 in
1015 mb
29.97 in
1015 mb
29.97 in
1015 mb
29.97 in
1015 mb
29.94 in
1014 mb
29.94 in
1014 mb
29.94 in
1014 mb
29.94 in
1014 mb
29.94 in
1014 mb
29.94 in
1014 mb
29.94 in
1014 mb
29.97 in
1015 mb
29.97 in
1015 mb
49%44%36%32%29%27%27%27%32%39%44%47%49%51%54%55%57%59%60%60%61%62%63%65%61%51%44%39%38%38%39%42%50%57%62%66%67%69%70%72%72%72%70%70%72%75%77%78%
NNNNNNNNNNNNNENENEENEEENEEESEEESEESEEEESEESEESESESESESESEESEESEESEEENEENEEEEENEENEENEENEENEENEE
11 mph
17 km/h
11 mph
17 km/h
12 mph
19 km/h
11 mph
18 km/h
11 mph
18 km/h
10 mph
16 km/h
11 mph
17 km/h
9 mph
15 km/h
8 mph
13 km/h
5 mph
8 km/h
5 mph
8 km/h
5 mph
8 km/h
4 mph
7 km/h
4 mph
7 km/h
4 mph
7 km/h
5 mph
8 km/h
5 mph
8 km/h
5 mph
8 km/h
5 mph
9 km/h
5 mph
8 km/h
6 mph
9 km/h
6 mph
9 km/h
5 mph
9 km/h
6 mph
10 km/h
8 mph
12 km/h
8 mph
12 km/h
10 mph
15 km/h
7 mph
12 km/h
7 mph
12 km/h
6 mph
10 km/h
6 mph
10 km/h
6 mph
10 km/h
4 mph
7 km/h
4 mph
7 km/h
3 mph
5 km/h
3 mph
5 km/h
3 mph
5 km/h
4 mph
6 km/h
5 mph
8 km/h
4 mph
6 km/h
4 mph
7 km/h
4 mph
6 km/h
4 mph
6 km/h
4 mph
7 km/h
4 mph
7 km/h
4 mph
6 km/h
4 mph
6 km/h
3 mph
5 km/h
0%0%0%0%0%0%0%0%0%0%0%0%0%0%0%0%0%0%0%0%0%0%0%0%0%0%0%0%0%0%0%0%0%0%0%0%0%0%0%0%0%0%0%0%0%0%0%0%
6 mi
10 km
6 mi
10 km
6 mi
10 km
6 mi
10 km
6 mi
10 km
6 mi
10 km
6 mi
10 km
6 mi
10 km
6 mi
10 km
6 mi
10 km
6 mi
10 km
6 mi
10 km
6 mi
10 km
6 mi
10 km
6 mi
10 km
6 mi
10 km
6 mi
10 km
6 mi
10 km
6 mi
10 km
6 mi
10 km
6 mi
10 km
6 mi
10 km
6 mi
10 km
6 mi
10 km
6 mi
10 km
6 mi
10 km
6 mi
10 km
6 mi
10 km
6 mi
10 km
6 mi
10 km
6 mi
10 km
6 mi
10 km
6 mi
10 km
6 mi
10 km
6 mi
10 km
6 mi
10 km
6 mi
10 km
6 mi
10 km
6 mi
10 km
6 mi
10 km
6 mi
10 km
6 mi
10 km
6 mi
10 km
6 mi
10 km
6 mi
10 km
6 mi
10 km
6 mi
10 km
6 mi
10 km

Day/Time
Weather
Condition
Temperature
Dew Point
Pressure
Humidity
Wind Direction
Wind Speed
Prob Precip %
Visibility
Prob Precip % = Probability of Precipitation.